Change the Weather History Date:

Wednesday, August 14, 2013

  Actual Average Record
Temperature  
Mean Temperature 66 °F -  
Max Temperature 82 °F 84 °F 94 °F (1962)
Min Temperature 51 °F 52 °F 43 °F (1974)
Cooling Degree Days 2    
Growing Degree Days 16 (Base 50)    
Moisture  
Dew Point 47 °F    
Average Humidity 54    
Maximum Humidity 92    
Minimum Humidity 19    
Precipitation  
Precipitation 0.00 in - - ()
Sea Level Pressure  
Sea Level Pressure 30.30 in    
Wind  
Wind Speed 4 mph (SSW)    
Max Wind Speed 14 mph    
Max Gust Speed 23 mph    
Visibility 10 miles    
Events      
Averages and records for this station are not official NWS values.
T = Trace of Precipitation, MM = Missing Value Source: NWS Daily Summary

Daily Weather History Graph

Daily Weather History Graph

Search for Another Location

Airport or City:

Trip Planner

Search our weather history database for the weather conditions in past years. The results will help you decide how hot, cold, wet, or windy it might be!

Date:

Astronomy

Aug. 14, 2013 Rise Set
Actual Time 6:30 AM MDT 8:00 PM MDT
Civil Twilight 6:03 AM MDT 8:27 PM MDT
Nautical Twilight 5:31 AM MDT 9:00 PM MDT
Astronomical Twilight 4:57 AM MDT 9:33 PM MDT
Moon 2:13 PM MDT (8/14) No Moon Set
Length of Visible Light 14h 23m
Length of Day
13h 30m
First Quarter, 53% of the Moon is Illuminated
Aug 14
First Quarter
Aug 20
Full
Aug 28
Last Quarter
Sep 5
New
Sep 12
First Quarter

Hourly Weather History & Observations

Time (MDT) Temp. Dew Point Humidity Pressure Visibility Wind Dir Wind Speed Gust Speed Precip Events Conditions
12:15 AM 57.7 °F 51.1 °F 78% 30.32 in 10.0 mi Calm Calm - N/A   Clear
12:35 AM 56.3 °F 51.4 °F 84% 30.32 in 10.0 mi NW 4.6 mph - N/A   Clear
12:55 AM 58.1 °F 50.5 °F 76% 30.32 in 10.0 mi WNW 3.5 mph - N/A   Clear
1:15 AM 56.3 °F 50.9 °F 82% 30.32 in 10.0 mi Calm Calm - N/A   Clear
1:35 AM 55.6 °F 51.3 °F 85% 30.32 in 10.0 mi NNW 3.5 mph - N/A   Clear
1:55 AM 55.0 °F 50.7 °F 85% 30.32 in 10.0 mi NW 4.6 mph - N/A   Clear
2:15 AM 55.2 °F 50.4 °F 84% 30.32 in 10.0 mi NW 4.6 mph - N/A   Clear
2:35 AM 55.0 °F 50.5 °F 85% 30.31 in 10.0 mi NW 5.8 mph - N/A   Clear
2:55 AM 53.8 °F 50.2 °F 88% 30.31 in 10.0 mi NW 3.5 mph - N/A   Clear
3:15 AM 54.9 °F 50.5 °F 85% 30.31 in 10.0 mi NW 6.9 mph - N/A   Clear
3:35 AM 54.0 °F 50.2 °F 87% 30.31 in 10.0 mi WNW 3.5 mph - N/A   Clear
3:55 AM 54.5 °F 49.3 °F 83% 30.31 in 10.0 mi NW 4.6 mph - N/A   Clear
4:15 AM 54.3 °F 49.1 °F 83% 30.31 in 10.0 mi WNW 4.6 mph - N/A   Clear
4:35 AM 54.0 °F 49.3 °F 84% 30.32 in 10.0 mi Calm Calm - N/A   Clear
4:55 AM 52.9 °F 49.3 °F 88% 30.32 in 10.0 mi SSW 3.5 mph - N/A   Clear
5:15 AM 53.1 °F 49.1 °F 86% 30.32 in 10.0 mi Calm Calm - N/A   Clear
5:35 AM 52.0 °F 48.7 °F 89% 30.32 in 10.0 mi SE 3.5 mph - N/A   Clear
5:55 AM 51.4 °F 48.7 °F 90% 30.32 in 10.0 mi Calm Calm - N/A   Clear
6:15 AM 51.6 °F 48.6 °F 89% 30.32 in 10.0 mi South 3.5 mph - N/A   Clear
6:35 AM 53.2 °F 49.5 °F 87% 30.32 in 10.0 mi Calm Calm - N/A   Clear
6:55 AM 51.8 °F 48.7 °F 89% 30.34 in 10.0 mi NW 3.5 mph - N/A   Clear
7:15 AM 51.4 °F 49.1 °F 92% 30.34 in 10.0 mi WNW 3.5 mph - N/A   Clear
7:35 AM 52.9 °F 50.2 °F 91% 30.35 in 10.0 mi NNW 4.6 mph - N/A   Clear
7:55 AM 56.1 °F 50.5 °F 82% 30.35 in 10.0 mi Calm Calm - N/A   Clear
8:15 AM 58.5 °F 50.4 °F 74% 30.36 in 10.0 mi Calm Calm - N/A   Clear
8:35 AM 60.4 °F 50.7 °F 70% 30.35 in 10.0 mi Calm Calm - N/A   Clear
8:55 AM 65.1 °F 52.7 °F 64% 30.35 in 10.0 mi SE 5.8 mph - N/A   Clear
9:15 AM 67.6 °F 53.4 °F 60% 30.36 in 10.0 mi SE 10.4 mph - N/A   Clear
9:35 AM 69.4 °F 53.8 °F 57% 30.36 in 10.0 mi SSE 10.4 mph - N/A   Clear
9:55 AM 70.5 °F 52.9 °F 54% 30.35 in 10.0 mi SE 9.2 mph 16.1 mph N/A   Clear
10:15 AM 71.6 °F 52.7 °F 51% 30.35 in 10.0 mi SE 9.2 mph - N/A   Clear
10:35 AM 73.0 °F 52.5 °F 48% 30.35 in 10.0 mi SE 9.2 mph - N/A   Clear
10:55 AM 75.0 °F 52.2 °F 45% 30.35 in 10.0 mi SE 8.1 mph - N/A   Clear
11:15 AM 73.9 °F 52.2 °F 46% 30.35 in 10.0 mi SSE 8.1 mph - N/A   Clear
11:35 AM 73.4 °F 51.1 °F 45% 30.35 in 10.0 mi SSE 9.2 mph - N/A   Scattered Clouds
11:55 AM 72.7 °F 52.5 °F 49% 30.35 in 10.0 mi South 9.2 mph - N/A   Mostly Cloudy
12:15 PM 75.0 °F 40.5 °F 29% 30.34 in 10.0 mi South 6.9 mph 10.4 mph N/A   Overcast
12:35 PM 75.4 °F 38.7 °F 27% 30.34 in 10.0 mi SE 5.8 mph - N/A   Overcast
12:55 PM 73.2 °F 44.1 °F 35% 30.35 in 10.0 mi NNW 13.8 mph 23.0 mph N/A   Overcast
1:55 PM 78.8 °F 39.4 °F 24% 30.32 in 10.0 mi West 3.5 mph - N/A   Scattered Clouds
2:15 PM 77.9 °F 40.8 °F 27% 30.31 in 10.0 mi SW 5.8 mph - N/A   Scattered Clouds
2:35 PM 80.2 °F 39.6 °F 23% 30.29 in 10.0 mi Calm Calm - N/A   Clear
2:55 PM 81.9 °F 41.5 °F 24% 30.28 in 10.0 mi NW 4.6 mph - N/A   Clear
3:15 PM 82.2 °F 38.5 °F 21% 30.27 in 10.0 mi North 4.6 mph - N/A   Clear
3:35 PM 81.1 °F 38.8 °F 22% 30.27 in 10.0 mi NW 13.8 mph - N/A   Mostly Cloudy
3:55 PM 81.7 °F 39.7 °F 22% 30.27 in 10.0 mi North 6.9 mph - N/A   Mostly Cloudy
4:15 PM 82.6 °F 36.7 °F 19% 30.26 in 10.0 mi Calm Calm - N/A   Scattered Clouds
4:35 PM 81.1 °F 39.6 °F 23% 30.26 in 10.0 mi Calm Calm - N/A   Scattered Clouds
4:55 PM 81.1 °F 37.8 °F 21% 30.26 in 10.0 mi Calm Calm - N/A   Scattered Clouds
5:15 PM 82.8 °F 38.3 °F 20% 30.25 in 10.0 mi WSW 3.5 mph - N/A   Scattered Clouds
5:35 PM 82.0 °F 36.5 °F 20% 30.24 in 10.0 mi Calm Calm - N/A   Clear
5:55 PM 80.4 °F 44.2 °F 28% 30.24 in 10.0 mi West 3.5 mph - N/A   Clear
6:15 PM 81.7 °F 35.8 °F 19% 30.24 in 10.0 mi Calm Calm - N/A   Clear
6:35 PM 80.4 °F 40.8 °F 24% 30.23 in 10.0 mi Calm Calm - N/A   Clear
6:55 PM 81.3 °F 38.1 °F 21% 30.23 in 10.0 mi Calm Calm - N/A   Clear
7:15 PM 80.6 °F 41.2 °F 25% 30.23 in 10.0 mi Calm Calm - N/A   Clear
7:35 PM 76.5 °F 44.4 °F 32% 30.24 in 10.0 mi SE 5.8 mph - N/A   Clear
7:55 PM 74.3 °F 44.8 °F 35% 30.24 in 10.0 mi SE 5.8 mph - N/A   Scattered Clouds
8:15 PM 70.2 °F 49.5 °F 48% 30.24 in 10.0 mi South 3.5 mph - N/A   Scattered Clouds
8:35 PM 70.0 °F 47.7 °F 45% 30.25 in 10.0 mi South 5.8 mph - N/A   Scattered Clouds
8:55 PM 69.8 °F 47.5 °F 45% 30.26 in 10.0 mi South 8.1 mph - N/A   Clear
9:15 PM 70.0 °F 47.8 °F 45% 30.27 in 10.0 mi South 5.8 mph - N/A   Clear
9:35 PM 71.1 °F 47.3 °F 43% 30.28 in 10.0 mi SE 6.9 mph - N/A   Mostly Cloudy
9:55 PM 71.8 °F 46.4 °F 40% 30.30 in 10.0 mi ESE 5.8 mph - N/A   Mostly Cloudy
10:15 PM 70.7 °F 47.5 °F 44% 30.30 in 10.0 mi South 9.2 mph - N/A   Scattered Clouds
10:35 PM 71.8 °F 46.8 °F 41% 30.29 in 10.0 mi SSW 9.2 mph - N/A   Clear
10:55 PM 70.3 °F 47.3 °F 44% 30.29 in 10.0 mi SSE 3.5 mph - N/A   Clear
11:15 PM 68.7 °F 48.2 °F 48% 30.29 in 10.0 mi Calm Calm - N/A   Clear
11:35 PM 68.9 °F 47.7 °F 47% 30.30 in 10.0 mi SE 5.8 mph - N/A   Clear
11:55 PM 63.5 °F 49.8 °F 61% 30.30 in 10.0 mi SSE 6.9 mph - N/A   Clear